Weather History for Halifax, NS

Change the Weather History Date:

Thursday, December 19, 2013

  Actual Average Record
Temperature  
Mean Temperature 22 °F -  
Max Temperature 28 °F 31 °F 53 °F (1996)
Min Temperature 16 °F 15 °F 5 °F (2007)
Degree Days  
Heating Degree Days 43    
Moisture  
Dew Point 19 °F    
Average Humidity 83    
Maximum Humidity 93    
Minimum Humidity 65    
Precipitation  
Precipitation 0.03 in 0.20 in - ()
Sea Level Pressure  
Sea Level Pressure 29.91 in    
Wind  
Wind Speed 13 mph ()    
Max Wind Speed 25 mph    
Max Gust Speed 34 mph    
Visibility 13.6 miles    
Events Snow    
Averages and records for this station are not official NWS values.
T = Trace of Precipitation, MM = Missing Value Source: Averaged Metar Reports

Daily Weather History Graph

Daily Weather History Graph

Search for Another Location

Airport:

Trip Planner

Search our weather history database for the weather conditions in past years. The results will help you decide how hot, cold, wet, or windy it might be!

Date:

Astronomy

Dec. 19, 2013 Rise Set
Actual Time 7:47 AM AST 4:34 PM AST
Civil Twilight 7:13 AM AST 5:08 PM AST
Nautical Twilight 6:36 AM AST 5:45 PM AST
Astronomical Twilight 6:01 AM AST 6:21 PM AST
Moon 7:01 PM AST (12/19) 8:59 AM AST (12/19)
Length of Visible Light 9h 54m
Length of Day
8h 47m
Waning Gibbous, 95% of the Moon is Illuminated
Dec 19
Waning Gibbous
Dec 25
Last Quarter
Jan 1
New
Jan 7
First Quarter
Jan 16
Full

Hourly Weather History & Observations

Time (AST) Temp. Windchill Dew Point Humidity Pressure Visibility Wind Dir Wind Speed Gust Speed Precip Events Conditions
12:00 AM 23.0 °F 6.6 °F 17.6 °F 80% 29.70 in 10.0 mi WNW 25.3 mph 34.5 mph N/A Snow Light Snow
1:00 AM 21.2 °F 4.9 °F 17.6 °F 86% 29.73 in 6.0 mi WNW 23.0 mph - N/A Snow Light Snow
1:56 AM 21.2 °F 6.0 °F 15.8 °F 80% 29.77 in 15.0 mi WNW 19.6 mph 26.5 mph N/A Snow Low Drifting Snow
2:00 AM 20 °F - 16 °F 78% 29.78 in 15 mi WNW 19.6 mph - -   Partly Cloudy
2:00 AM 21.2 °F 6.0 °F 15.8 °F 80% 29.78 in 15.0 mi WNW 19.6 mph - N/A Snow Low Drifting Snow
3:00 AM 19.4 °F 5.0 °F 14.0 °F 80% 29.82 in 15.0 mi WNW 16.1 mph 23.0 mph N/A Snow Low Drifting Snow
4:00 AM 17.6 °F 4.3 °F 12.2 °F 79% 29.84 in 15.0 mi WNW 12.7 mph 21.9 mph N/A Snow Low Drifting Snow
5:00 AM 17.6 °F 4.3 °F 14.0 °F 86% 29.86 in 15.0 mi West 12.7 mph - N/A   Scattered Clouds
6:00 AM 17.6 °F 3.2 °F 14.0 °F 86% 29.88 in 15.0 mi WSW 15.0 mph - N/A   Mostly Cloudy
6:31 AM 17.6 °F 4.3 °F 14.0 °F 86% 29.89 in 10.0 mi West 12.7 mph - N/A Snow Light Snow Showers
7:00 AM 19.4 °F 7.2 °F 15.8 °F 86% 29.91 in 10.0 mi WSW 11.5 mph - N/A Snow Light Snow Showers
7:20 AM 17.6 °F 5.0 °F 15.8 °F 93% 29.91 in 2.5 mi SW 11.5 mph - N/A Snow Light Snow Showers
8:00 AM 18 °F - 16 °F 87% 29.92 in 10 mi SW 12.7 mph - - Snow Light Snow Showers
8:00 AM 17.6 °F 4.3 °F 15.8 °F 93% 29.92 in 10.0 mi SW 12.7 mph - N/A Snow Light Snow Showers
8:38 AM 19.4 °F 7.9 °F 15.8 °F 86% 29.94 in 15.0 mi WSW 10.4 mph - N/A   Scattered Clouds
9:00 AM 21.2 °F 9.5 °F 17.6 °F 86% 29.94 in 15.0 mi West 11.5 mph - N/A   Scattered Clouds
10:00 AM 23.0 °F 11.1 °F 17.6 °F 80% 29.96 in 15.0 mi West 12.7 mph - N/A   Partly Cloudy
11:00 AM 26.6 °F 14.7 °F 19.4 °F 74% 29.96 in 15.0 mi West 15.0 mph - N/A   Partly Cloudy
12:00 PM 26.6 °F 14.3 °F 17.6 °F 69% 29.96 in 15.0 mi WNW 16.1 mph 24.2 mph N/A   Mostly Cloudy
12:22 PM 26.6 °F 15.7 °F 19.4 °F 74% 29.96 in 15.0 mi West 12.7 mph - N/A Snow Light Snow Showers
1:00 PM 28.4 °F 19.1 °F 21.2 °F 74% 29.94 in 15.0 mi West 10.4 mph - N/A Snow Light Snow Showers
1:50 PM 28.4 °F 17.0 °F 19.4 °F 69% 29.94 in 15.0 mi West 15.0 mph - N/A   Mostly Cloudy
2:00 PM 28 °F - 21 °F 65% 29.94 in 15 mi West 12.7 mph - - Snow Light Snow Showers
2:00 PM 28.4 °F 18.0 °F 21.2 °F 74% 29.94 in 15.0 mi West 12.7 mph - N/A Snow Light Snow Showers
3:00 PM 28.4 °F 18.0 °F 21.2 °F 74% 29.95 in 15.0 mi West 12.7 mph - N/A Snow Light Snow Showers
4:00 PM 26.6 °F 18.2 °F 23.0 °F 86% 29.95 in 15.0 mi West 8.1 mph - N/A   Overcast
5:00 PM 26.6 °F 20.0 °F 23.0 °F 86% 29.96 in 15.0 mi West 5.8 mph - N/A Snow Light Snow Showers
6:00 PM 26.6 °F - 23.0 °F 86% 29.95 in 15.0 mi WSW 2.3 mph - N/A Snow Light Snow Showers
6:24 PM 26.6 °F - 23.0 °F 86% 29.95 in 15.0 mi SSW 2.3 mph - N/A Snow Light Snow Showers
7:00 PM 26.6 °F - 23.0 °F 86% 29.95 in 15.0 mi South 2.3 mph - N/A Snow Light Snow Showers
8:00 PM 27 °F - 24 °F 82% 29.95 in 15 mi North 1.2 mph - - Snow Light Snow Showers
8:00 PM 26.6 °F - 23.0 °F 86% 29.95 in 15.0 mi Calm Calm - N/A Snow Light Snow Showers
9:00 PM 26.6 °F - 24.8 °F 93% 29.95 in 15.0 mi NNW 2.3 mph - N/A Snow Light Snow Showers
10:00 PM 26.6 °F 21.2 °F 24.8 °F 93% 29.96 in 12.0 mi NW 4.6 mph - N/A Snow Light Snow Showers
10:40 PM 26.6 °F 22.6 °F 24.8 °F 93% 29.95 in 15.0 mi West 3.5 mph - N/A   Overcast
11:00 PM 28.4 °F 21.2 °F 26.6 °F 93% 29.96 in 15.0 mi West 6.9 mph - N/A   Overcast